This demonstration page uses our WeatherBlox Daily Observations layout. Learn more.

Left ArrowRight Arrow

Hourly Observations for July 6, 2016

Temp ( °F °C ) Dew Point ( °F °C ) Humidity (%) Winds ( mph kmh ) Pressure ( in mb ) Visibility ( mi km ) Precip ( " mm )
12:15 am 00:15 Clear 73 22.7 63 17.1 71 71 WSW 7 11 29.74 1007 10 16 N/A
12:35 am 00:35 Clear 72 22.2 62 16.7 71 71 W 8 13 29.74 1007 10 16 N/A
12:55 am 00:55 Clear 72 22.1 60 15.7 67 67 N N/A 29.71 1006 10 16 N/A
1:15 am 01:15 Clear 71 21.6 60 15.6 69 69 N N/A 29.68 1005 10 16 N/A
1:35 am 01:35 Clear 70 20.9 62 16.5 76 76 W 3 6 29.74 1007 10 16 N/A
1:55 am 01:55 Clear 72 22.1 61 15.9 68 68 W 6 9 29.74 1007 10 16 N/A
2:15 am 02:15 Clear 73 22.9 60 15.7 64 64 N N/A 29.71 1006 10 16 N/A
2:35 am 02:35 Clear 70 21.3 61 16.3 73 73 N N/A 29.71 1006 10 16 N/A
2:55 am 02:55 Clear 69 20.5 62 16.9 80 80 N N/A 29.74 1007 10 16 N/A
3:15 am 03:15 Clear 68 20.1 63 17.3 84 84 SSW 3 6 29.74 1007 10 16 N/A
3:35 am 03:35 Clear 67 19.6 63 17.1 86 86 WNW 5 7 29.74 1007 10 16 N/A
3:55 am 03:55 Clear 67 19.5 63 17.1 86 86 WNW 7 11 29.71 1006 10 16 N/A
4:15 am 04:15 Clear 66 19.1 63 17 88 88 WNW 6 9 29.74 1007 10 16 N/A
4:35 am 04:35 Clear 66 19 63 17 88 88 NW 3 6 29.74 1007 10 16 N/A
4:55 am 04:55 Clear 65 18.2 62 16.6 90 90 N N/A 29.74 1007 10 16 N/A
5:15 am 05:15 Clear 64 18 62 16.9 93 93 N N/A 29.74 1007 10 16 N/A
5:35 am 05:35 Clear 63 17.3 61 16.1 93 93 E 3 6 29.77 1008 10 16 N/A
5:55 am 05:55 Clear 64 17.6 62 16.5 93 93 N N/A 29.80 1009 10 16 N/A
6:15 am 06:15 Sunny 62 16.6 60 15.6 94 94 N N/A 29.80 1009 7 11 N/A
6:35 am 06:35 Sunny with Mist and Fog 62 16.6 60 15.6 94 94 N N/A 29.77 1008 5 8 N/A
6:55 am 06:55 Sunny with Mist and Fog 62 16.5 60 15.6 94 94 N N/A 29.77 1008 5 8 N/A
7:15 am 07:15 Sunny with Mist and Fog 63 17.3 62 16.6 96 96 N N/A 29.77 1008 4 6 N/A
7:35 am 07:35 Sunny 65 18.6 64 17.5 93 93 N N/A 29.74 1007 10 16 N/A
7:55 am 07:55 Sunny 68 19.9 64 17.9 88 88 N N/A 29.74 1007 10 16 N/A
8:15 am 08:15 Sunny 70 21 65 18.1 84 84 N N/A 29.77 1008 10 16 N/A
8:35 am 08:35 Sunny 72 22.1 64 18 78 78 SE 5 7 29.74 1007 10 16 N/A
8:55 am 08:55 Sunny 73 22.6 64 17.8 74 74 SE 7 11 29.71 1006 10 16 N/A
9:15 am 09:15 Sunny 74 23.3 64 17.8 71 71 N N/A 29.74 1007 10 16 N/A
9:35 am 09:35 Sunny 76 24.4 65 18.2 68 68 S 3 6 29.74 1007 10 16 N/A
9:55 am 09:55 Sunny 77 24.9 65 18.4 67 67 SE 3 6 29.74 1007 10 16 N/A
10:15 am 10:15 Sunny 78 25.8 65 18.3 63 63 N N/A 29.71 1006 10 16 N/A
10:35 am 10:35 Sunny 79 26.3 66 18.7 63 63 E 3 6 29.71 1006 10 16 N/A
10:55 am 10:55 Sunny 81 27.1 65 18.1 58 58 E 3 6 29.71 1006 10 16 N/A
11:15 am 11:15 Sunny 82 28 66 18.8 57 57 SSW 6 9 29.71 1006 10 16 N/A
11:35 am 11:35 Sunny 83 28.5 65 18.6 55 55 SSE 3 6 29.74 1007 10 16 N/A
11:55 am 11:55 Sunny 84 29.1 65 18.3 52 52 SSW 5 7 29.74 1007 10 16 N/A
12:15 pm 12:15 Sunny 84 29.1 65 18.2 52 52 N N/A 29.74 1007 10 16 N/A
12:35 pm 12:35 Sunny 85 29.3 65 18.3 52 52 SSW 6 9 29.74 1007 10 16 N/A
12:55 pm 12:55 Sunny 84 29.1 64 17.8 51 51 N N/A 29.68 1005 10 16 N/A
1:15 pm 13:15 Sunny 85 29.6 64 17.9 49 49 SSW 3 6 29.68 1005 10 16 N/A
1:35 pm 13:35 Sunny 86 29.9 64 17.8 48 48 S 3 6 29.65 1004 10 16 N/A
1:55 pm 13:55 Sunny 87 30.3 64 17.7 47 47 N N/A 29.65 1004 10 16 N/A
2:15 pm 14:15 Sunny 87 30.3 64 17.7 47 47 SE 5 7 29.65 1004 10 16 N/A
2:35 pm 14:35 Sunny 87 30.6 64 17.5 45 45 N N/A 29.65 1004 10 16 N/A
2:55 pm 14:55 Sunny 88 31.3 64 18 45 45 SSE 7 11 29.65 1004 10 16 N/A
3:15 pm 15:15 Sunny 90 32 60 15.7 37 37 SSE 7 11 29.65 1004 10 16 N/A
3:35 pm 15:35 Sunny 90 32.2 61 16 38 38 SSW 7 11 29.65 1004 10 16 N/A
3:55 pm 15:55 Sunny 90 32.1 61 16.3 39 39 SSW 8 13 29.65 1004 10 16 N/A
4:15 pm 16:15 Sunny 90 32.2 61 16.1 38 38 S 7 11 29.65 1004 10 16 N/A
4:35 pm 16:35 Sunny 91 32.5 62 16.6 38 38 S 8 13 29.59 1002 10 16 N/A
4:55 pm 16:55 Sunny 91 32.5 62 16.5 38 38 S 8 13 29.59 1002 10 16 N/A
5:10 pm 17:10 Sunny 91 32.5 64 17.5 41 41 S 10 17 29.59 1002 10 16 N/A
5:30 pm 17:30 Sunny 90 32.4 64 17.9 42 42 SSE 8 13 29.59 1002 10 16 N/A
5:55 pm 17:55 Sunny 90 32.4 62 16.4 38 38 S 9 15 29.59 1002 10 16 N/A
6:10 pm 18:10 Sunny 91 32.7 62 16.9 39 39 S 9 15 29.59 1002 10 16 N/A
6:30 pm 18:30 Sunny 89 31.5 64 18 45 45 SSE 6 9 29.62 1003 10 16 N/A
6:50 pm 18:50 Sunny 90 32.1 65 18.3 44 44 SSE 8 13 29.62 1003 10 16 N/A
7:10 pm 19:10 Sunny 89 31.6 65 18.2 45 45 SSE 7 11 29.62 1003 10 16 N/A
7:30 pm 19:30 Sunny 87 30.7 66 19 50 50 SSE 8 13 29.62 1003 10 16 N/A
7:55 pm 19:55 Sunny 85 29.4 67 19.3 55 55 SSE 6 9 29.62 1003 10 16 N/A
8:10 pm 20:10 Sunny 84 29 66 19 55 55 SSE 7 11 29.62 1003 10 16 N/A
8:35 pm 20:35 Sunny 81 27.1 66 19 61 61 SSE 9 15 29.62 1003 10 16 N/A
8:55 pm 20:55 Sunny 80 26.5 65 18.2 60 60 SSE 8 13 29.62 1003 10 16 N/A
9:15 pm 21:15 Clear 78 25.5 65 18.2 64 64 SE 9 15 29.62 1003 10 16 N/A
9:35 pm 21:35 Clear 77 25 65 18.4 67 67 SSE 7 11 29.62 1003 10 16 N/A
9:55 pm 21:55 Clear 76 24.5 65 18.5 69 69 SSE 7 11 29.62 1003 10 16 N/A
10:10 pm 22:10 Clear 76 24.5 65 18.6 70 70 SE 5 7 29.68 1005 10 16 N/A
10:30 pm 22:30 Clear 76 24.2 66 18.7 71 71 SSE 6 9 29.68 1005 10 16 N/A
10:50 pm 22:50 Clear 77 25.1 66 19 69 69 SSE 10 17 29.65 1004 10 16 N/A
11:10 pm 23:10 Clear 77 25.2 66 19 69 69 SSW 7 11 29.65 1004 10 16 N/A
11:35 pm 23:35 Mostly Cloudy with Nearby Thunderstorms 75 23.7 56 13.3 52 52 WSW 18 30 29.71 1006 7 11 N/A
11:55 pm 23:55 Windy with Storms Likely 66 19 63 17.2 89 89 NW 22 35 29.74 1007 10 16 0.04 1.02

Powered by AerisWeather